This demonstration page uses our WeatherBlox Daily Observations layout. Learn more.

Left ArrowRight Arrow

Hourly Observations for May 30, 2015

Temp ( °F °C ) Dew Point ( °F °C ) Humidity (%) Winds ( mph kmh ) Pressure ( in mb ) Visibility ( mi km ) Precip ( " mm )
12:11 am 00:11 Cloudy 52 11 45 7 77 77 N 22 35 30.18 1022 10 16 0.00 0.00
12:53 am 00:53 Cloudy 52 11.1 45 7.2 77 77 N 20 31 30.16 1021 10 16 0.00 0.00
1:46 am 01:46 Cloudy 50 10 44 6.7 80 80 N 22 35 30.18 1022 10 16 0.00 0.00
1:53 am 01:53 Cloudy 50 10 43 6.1 77 77 N 22 35 30.16 1021 10 16 0.00 0.00
2:53 am 02:53 Cloudy 49 9.4 43 6.1 80 80 N 17 28 30.17 1022 10 16 0.00 0.03
3:53 am 03:53 Cloudy 50 10 42 5.6 74 74 N 17 28 30.17 1022 10 16 0.00 0.00
4:53 am 04:53 Cloudy 50 10 41 5 71 71 N 15 24 30.17 1022 10 16 0.00 0.00
5:53 am 05:53 Cloudy 49 9.4 41 5 74 74 N 17 28 30.16 1021 10 16 0.00 0.00
6:53 am 06:53 Mostly Cloudy 48 8.9 42 5.6 80 80 N 12 19 30.22 1023 10 16 0.00 0.00
7:10 am 07:10 Mostly Cloudy 48 9 41 5 76 76 N 15 24 30.24 1024 10 16 0.00 0.00
7:53 am 07:53 Cloudy 49 9.4 41 5 74 74 N 16 26 30.24 1024 10 16 0.00 0.00
8:53 am 08:53 Cloudy 50 10 42 5.6 74 74 N 17 28 30.24 1024 10 16 0.00 0.00
9:53 am 09:53 Cloudy 51 10.6 43 6.1 74 74 N 16 26 30.25 1024 10 16 0.00 0.00
10:53 am 10:53 Mostly Cloudy 56 13.3 45 7.2 67 67 N 15 24 30.24 1024 10 16 0.00 0.00
11:18 am 11:18 Partly Cloudy 57 14 45 7 63 63 N 18 30 30.21 1023 10 16 0.00 0.00
11:53 am 11:53 Sunny 59 15 45 7.2 60 60 N 14 22 30.24 1024 10 16 0.00 0.00
12:53 pm 12:53 Sunny 61 16.1 45 7.2 56 56 NNE 15 24 30.24 1024 10 16 0.00 0.00
1:53 pm 13:53 Sunny 63 17.2 45 7.2 52 52 NNE 16 26 30.23 1024 10 16 0.00 0.00
2:53 pm 14:53 Sunny 64 17.8 46 7.8 52 52 N 8 13 30.22 1023 10 16 0.00 0.00
3:53 pm 15:53 Sunny 65 18.3 45 7.2 49 49 N 12 19 30.21 1023 10 16 0.00 0.00
4:53 pm 16:53 Sunny 66 18.9 44 6.7 45 45 N 7 11 30.19 1022 10 16 0.00 0.00
5:53 pm 17:53 Sunny 67 19.4 42 5.6 41 41 NNE 12 19 30.18 1022 10 16 0.00 0.00
6:53 pm 18:53 Sunny 67 19.4 40 4.4 37 37 NNE 9 15 30.16 1022 10 16 0.00 0.00
7:53 pm 19:53 Sunny 65 18.3 39 3.9 39 39 NNE 8 13 30.17 1022 10 16 0.00 0.00
8:53 pm 20:53 Sunny 60 15.6 40 4.4 47 47 NE 6 9 30.17 1022 10 16 0.00 0.00
9:53 pm 21:53 Clear 56 13.3 39 3.9 53 53 ENE 3 6 30.19 1022 10 16 0.00 0.00
10:53 pm 22:53 Clear 54 12.2 40 4.4 59 59 E 6 9 30.19 1023 10 16 0.00 0.00
11:53 pm 23:53 Clear 53 11.7 39 3.9 59 59 E 6 9 30.18 1022 10 16 0.00 0.00

Powered by AerisWeather